Location: Caltech
(34.1382°N, 118.1253°W)
Time: 01:43:07
(UTC-07:00)

FENGYUN 3A - Visible Passes

Search period start: 30 June 2016 00:00
Search period end: 10 July 2016 00:00
Orbit: 820 x 833 km, 98.5° (Epoch: 29 June)

Date Brightness Start Highest point End Pass type
(mag) Time Alt. Az. Time Alt. Az. Time Alt. Az.
30 Jun 3.9 20:43:29 10° S 20:48:53 77° WSW 20:54:19 10° NNW visible
01 Jul 6.3 22:08:58 10° WSW 22:10:42 11° W 22:12:27 10° WNW visible
02 Jul 6.0 21:48:00 10° SW 21:51:39 18° W 21:55:21 10° NW visible
03 Jul 5.5 21:28:05 10° SSW 21:32:40 28° W 21:37:17 10° NW visible
04 Jul 4.8 21:08:36 10° S 21:13:43 43° W 21:18:52 10° NNW visible
05 Jul 4.1 20:49:26 10° S 20:54:49 66° WSW 21:00:13 10° NNW visible
06 Jul 3.7 20:30:33 10° SSE 20:35:58 82° ENE 20:41:24 10° N visible
07 Jul 6.2 21:54:28 10° SW 21:57:39 16° W 22:00:51 10° WNW visible
08 Jul 5.7 21:34:19 10° SSW 21:38:38 24° W 21:42:59 10° NW visible
09 Jul 5.0 21:14:42 10° SSW 21:19:40 37° W 21:24:39 10° NNW visible
